Location: Aurora Center
(43.5271°N, 98.5894°W)
Time: 07:11:08
(UTC-05:00)

Vanguard 3 - Visible Passes

Search period start: 19 July 2024 00:00
Search period end: 29 July 2024 00:00
Orbit: 508 x 3230 km, 33.4° (Epoch: 18 July)

Date Brightness Start Highest point End Pass type
(mag) Time Alt. Az. Time Alt. Az. Time Alt. Az.
19 Jul 9.8 01:46:54 36° S 01:51:49 43° SSE 02:09:16 10° E visible
19 Jul 10.0 03:51:01 13° WSW 04:06:15 60° S 04:25:13 10° E visible
20 Jul 10.0 00:31:59 30° SE 00:32:30 30° SE 00:46:44 10° E visible
20 Jul 9.9 02:36:05 28° SW 02:45:24 54° SSE 03:04:09 10° E visible
20 Jul 10.1 04:43:25 10° WSW 05:00:37 61° S 05:19:12 10° ESE visible
20 Jul 10.4 23:16:59 16° ESE 23:16:59 16° ESE 23:22:27 10° E visible
21 Jul 9.7 01:21:05 37° S 01:25:20 43° SSE 01:42:20 10° E visible
21 Jul 9.9 03:25:10 13° WSW 03:39:27 60° S 03:58:39 10° ESE visible
21 Jul 10.2 05:37:19 10° W 05:54:54 55° SSW 06:12:36 10° SE visible
22 Jul 9.8 00:05:57 30° SE 00:06:14 30° SE 00:19:41 10° E visible
22 Jul 9.7 02:10:01 27° SW 02:18:47 54° SSE 02:37:17 10° E visible
22 Jul 10.0 04:17:32 10° W 04:33:45 60° S 04:52:44 10° ESE visible
22 Jul 10.3 22:50:35 15° ESE 22:50:35 15° ESE 22:55:27 10° E visible
23 Jul 9.6 00:54:38 35° S 00:58:57 43° SSE 01:15:15 10° E visible
23 Jul 9.8 02:58:40 10° WSW 03:12:43 60° S 03:31:52 10° ESE visible
23 Jul 10.2 05:11:16 10° W 05:27:58 54° SSW 05:46:13 10° SE visible
23 Jul 9.5 23:38:39 28° SSE 23:40:05 29° SE 23:52:33 10° E visible
24 Jul 9.5 01:42:35 19° SW 01:52:17 54° SSE 02:10:14 10° E visible
24 Jul 9.9 03:51:47 10° W 04:06:55 59° S 04:26:01 10° ESE visible
24 Jul 9.8 22:17:05 10° SSE 22:22:06 15° SE 22:28:26 10° E visible
25 Jul 9.4 00:22:53 10° SW 00:32:41 42° SSE 00:48:04 10° E visible
25 Jul 9.6 02:33:03 10° WSW 02:46:05 59° S 03:04:53 10° ESE visible
25 Jul 10.1 04:45:22 10° W 05:01:04 52° SSW 05:19:33 10° SE visible
25 Jul 9.5 23:06:27 10° SSW 23:14:02 28° SE 23:25:25 10° E visible
26 Jul 9.4 01:15:01 10° WSW 01:25:54 53° SSE 01:43:03 10° E visible
26 Jul 9.8 03:26:10 10° W 03:40:09 57° S 03:59:05 10° ESE visible
26 Jul 10.3 05:39:23 10° W 05:54:57 41° SSW 06:12:07 10° SE visible
26 Jul 9.7 21:52:02 10° SSE 21:56:13 14° SE 22:01:26 10° ESE visible
26 Jul 9.2 23:57:43 10° SW 00:06:34 41° SSE 00:20:50 10° E visible
27 Jul 9.5 02:07:41 10° WSW 02:19:34 57° S 02:37:43 10° ESE visible
27 Jul 10.0 04:19:37 10° W 04:34:12 50° SSW 04:52:37 10° SE visible
27 Jul 9.3 22:41:22 10° SSW 22:48:06 27° SE 22:58:18 10° E visible
28 Jul 9.2 00:49:49 10° WSW 00:59:38 52° SSE 01:15:47 10° E visible
28 Jul 9.6 03:00:40 10° W 03:13:29 55° S 03:31:57 10° ESE visible
28 Jul 10.3 05:13:30 10° W 05:28:02 39° SSW 05:45:09 10° SSE visible
28 Jul 9.6 21:27:06 10° SSE 21:30:26 13° SE 21:34:28 10° ESE visible
28 Jul 9.1 23:32:38 10° SW 23:40:33 40° SSE 23:53:35 10° E visible
